星链-37303(STARLINK-37303)

导读

STARLINK-37303(NORAD编号68709)是美国SpaceX公司星链(Starlink)星座的一颗低轨通信卫星,隶属于全球规模最大的低轨卫星互联网星座系统。星链项目旨在通过近地轨道部署海量卫星,为全球尤其是偏远地区提供高速低延迟宽带互联网服务,同时也支持军事与应急通信场景。 该卫星运行在约550公里高度的近地轨道,配备相控阵天线与星间激光链路技术,可实现多用户同时接入与高效数据传输,是SpaceX持续扩展星链星座部署过程中的一员,助力完成全球网络覆盖的目标,也面临着太空轨道拥堵与天文观测影响等争议。

Basic Information
目录编号:
68709
目录名称:
STARLINK-37303
国际标识:
2026-081L
轨道中心:
EARTH
卫星名称:
星链-37303
卫星全名:
星链-37303(STARLINK-37303)
卫星状态:
在轨 (已飞行144 天)
发射日期:
2026-04-14 UTC
国别 :
美国 (US)
星等 :
--
Orbit Information
数据来源 国际轨道数据
星历时间: 2026-09-04T11:06:41+0800
1天前
查看轨道信息
半长轴: 6840.85km
偏心率: 0.0001391
轨道倾角: 53.159°
近地点辐角 86.806°
升交点赤经 282.362°
平近点角 273.310°
近地点: 461.761km
远地点: 463.665km
周期: 93.848分钟
每日圈数: 15.34397
Detailed Information
固有亮度:
5
最大亮度:
2.5
卫星平台:
Starlink V1.0
覆盖范围:
全球
运营商:
太空探索技术公司
运营商所在国:
美国
制造商(研发单位):
太空探索技术公司
制造商所在国:
美国
使用方式:
暂无
Satellite Introduction
Starlink 计划是 SpaceX 推出的全球卫星互联网项目,通过发射低轨道卫星,为全球尤其是偏远地区提供高速、低延迟的互联网服务。自 2019 年起,Starlink 已部署数千颗卫星,旨在缩小全球数字鸿沟,推动互联网普及。该项目还为军事、航空等行业提供通信支持,带来广泛经济效益。
2D Orbit Map
3D Orbit Map
Orbit Altitude Analysis Chart
Orbit Inclination Analysis Chart
Orbit Comprehensive Analysis Chart
View Comprehensive Chart
Conjunction Data List
Event ID Objects TCA Miss Dist (km) Collision Risk Probability Collision Risk Index (CRI) Action
CDM_260907-064405-256606-870921
2026-09-07T
06:44:16+0000
2.523 km
极远距离
1.420114E-6 低风险 0.38
CDM_260907-060005-265906-870921
2026-09-07T
06:00:57+0000
2.651 km
极远距离
1.375052E-6 低风险 0.38
CDM_260905-003205-172206-870921
2026-09-05T
00:32:55+0000
2.819 km
极远距离
7.362961E-7 极低风险 0.32
CDM_260906-132105-286006-870922
2026-09-06T
13:21:23+0000
2.852 km
极远距离
4.057964E-7 极低风险 0.27